Weather History for Jakarta Soekarno-Hatta, Indonesia

Change the Weather History Date:

Friday, November 22, 2013

  Actual Average Record
Temperature  
Mean Temperature 82 °F -  
Max Temperature 92 °F - - ()
Min Temperature 72 °F - - ()
Cooling Degree Days 17    
Growing Degree Days 32 (Base 50)    
Moisture  
Dew Point 69 °F    
Average Humidity 62    
Maximum Humidity 88    
Minimum Humidity 34    
Precipitation  
Precipitation 0.00 in - - ()
Sea Level Pressure  
Sea Level Pressure 29.75 in    
Wind  
Wind Speed 6 mph ()    
Max Wind Speed 16 mph    
Max Gust Speed 20 mph    
Visibility 5.6 miles    
Events      
T = Trace of Precipitation, MM = Missing Value Source: Averaged Metar Reports

Daily Weather History Graph

Daily Weather History Graph

Search for Another Location

Airport:

Trip Planner

Search our weather history database for the weather conditions in past years. The results will help you decide how hot, cold, wet, or windy it might be!

Date:

Astronomy

Nov. 22, 2013 Rise Set
Actual Time 5:26 AM WIT 5:52 PM WIT
Civil Twilight 5:04 AM WIT 6:14 PM WIT
Nautical Twilight 4:38 AM WIT 6:40 PM WIT
Astronomical Twilight 4:12 AM WIT 7:06 PM WIT
Moon 9:39 PM WIT (11/22) 9:00 AM WIT (11/22)
Length of Visible Light 13h 09m
Length of Day
12h 25m
Waning Gibbous, 82% of the Moon is Illuminated
Nov 22
Waning Gibbous
Nov 26
Last Quarter
Dec 3
New
Dec 9
First Quarter
Dec 17
Full

Hourly Weather History & Observations

Time (WIT) Temp. Heat Index Dew Point Humidity Pressure Visibility Wind Dir Wind Speed Gust Speed Precip Events Conditions
12:00 AM 78.8 °F - 69.8 °F 74% 29.77 in 5.0 mi SSW 8.1 mph - N/A   Partly Cloudy
12:30 AM 78.8 °F - 71.6 °F 78% 29.77 in 5.0 mi SSW 6.9 mph - N/A   Unknown
1:00 AM 76 °F - 71 °F 82% 29.76 in 5 mi SSW 5.8 mph - -   Scattered Clouds
1:00 AM 77.0 °F - 71.6 °F 83% 29.77 in 5.0 mi SSW 5.8 mph - N/A   Partly Cloudy
1:30 AM 77.0 °F - 71.6 °F 83% 29.74 in 3.7 mi South 2.3 mph - N/A   Partly Cloudy
2:00 AM 77.0 °F - 71.6 °F 83% 29.74 in 3.7 mi South 5.8 mph - N/A   Partly Cloudy
2:30 AM 75.2 °F - 69.8 °F 83% 29.74 in 5.0 mi SSW 6.9 mph - N/A   Unknown
3:00 AM 75.2 °F - 69.8 °F 83% 29.74 in 6.2 mi South 5.8 mph - N/A   Unknown
3:30 AM 75.2 °F - 69.8 °F 83% 29.74 in 6.2 mi South 4.6 mph - N/A   Unknown
4:00 AM 75 °F - 71 °F 85% 29.76 in 4 mi Calm Calm - -   Haze
4:00 AM 75.2 °F - 69.8 °F 83% 29.74 in 6.2 mi South 2.3 mph - N/A   Unknown
4:30 AM 73.4 °F - 69.8 °F 88% 29.74 in 6.2 mi SSW 3.5 mph - N/A   Unknown
5:00 AM 73.4 °F - 69.8 °F 88% 29.77 in 6.2 mi South 4.6 mph - N/A   Unknown
5:30 AM 75.2 °F - 69.8 °F 83% 29.77 in 6.2 mi South 4.6 mph - N/A   Unknown
6:00 AM 75.2 °F - 68.0 °F 78% 29.77 in 6.2 mi South 5.8 mph - N/A   Unknown
6:30 AM 78.8 °F - 69.8 °F 74% 29.77 in 6.2 mi SSW 2.3 mph - N/A   Partly Cloudy
7:00 AM 76 °F - 71 °F 80% 29.82 in 7 mi South 3.5 mph - -   Scattered Clouds
7:00 AM 80.6 °F 83.2 °F 68.0 °F 65% 29.80 in 6.2 mi SW 5.8 mph - N/A   Unknown
7:30 AM 82.4 °F 85.4 °F 68.0 °F 62% 29.77 in 6.2 mi South 8.1 mph - N/A   Unknown
8:00 AM 86.0 °F 88.2 °F 66.2 °F 51% 29.77 in 6.2 mi South 6.9 mph - N/A   Unknown
8:30 AM 89.6 °F 92.2 °F 66.2 °F 46% 29.77 in 6.2 mi Variable 4.6 mph - N/A   Unknown
9:00 AM 91.4 °F 94.0 °F 66.2 °F 43% 29.77 in 6.2 mi SSW 5.8 mph - N/A   Scattered Clouds
9:30 AM 91.4 °F 94.0 °F 66.2 °F 43% 29.77 in 6.2 mi SSW 8.1 mph - N/A   Partly Cloudy
10:00 AM 90 °F - 67 °F 37% 29.78 in 6 mi West 8.1 mph - -   Scattered Clouds
10:00 AM 91.4 °F 94.0 °F 66.2 °F 43% 29.77 in 6.2 mi West 8.1 mph - N/A   Partly Cloudy
10:30 AM 93.2 °F 97.7 °F 68.0 °F 44% 29.74 in 6.2 mi WSW 6.9 mph 18.4 mph N/A   Partly Cloudy
11:30 AM 95.0 °F 98.5 °F 66.2 °F 39% 29.74 in 6.2 mi WSW 6.9 mph 18.4 mph N/A   Partly Cloudy
12:00 PM 95.0 °F 101.3 °F 69.8 °F 44% 29.71 in 6.2 mi WNW 10.4 mph - N/A   Unknown
12:30 PM 95.0 °F 99.5 °F 68.0 °F 41% 29.71 in 6.2 mi WNW 11.5 mph - N/A   Unknown
1:00 PM 92 °F - 69 °F 37% 29.72 in 6 mi WNW 10.4 mph - -   Partly Cloudy
1:00 PM 95.0 °F 101.3 °F 69.8 °F 44% 29.71 in 6.2 mi WNW 6.9 mph 18.4 mph N/A   Scattered Clouds
1:30 PM 95.0 °F 99.5 °F 68.0 °F 41% 29.71 in 6.2 mi West 13.8 mph - N/A   Unknown
2:00 PM 95.0 °F 98.5 °F 66.2 °F 39% 29.68 in 6.2 mi West 10.4 mph - N/A   Unknown
2:30 PM 93.2 °F 100.5 °F 71.6 °F 49% 29.68 in 6.2 mi NNW 6.9 mph 18.4 mph N/A   Scattered Clouds
3:00 PM 93.2 °F 100.5 °F 71.6 °F 49% 29.68 in 6.2 mi NNW 15.0 mph - N/A   Scattered Clouds
3:30 PM 93.2 °F 100.5 °F 71.6 °F 49% 29.68 in 6.2 mi NW 12.7 mph - N/A   Scattered Clouds
4:00 PM 92 °F - 67 °F 34% 29.69 in 6 mi West 16.1 mph - -   Partly Cloudy
4:00 PM 93.2 °F 98.8 °F 69.8 °F 46% 29.68 in 6.2 mi West 5.8 mph 17.3 mph N/A   Scattered Clouds
4:30 PM 93.2 °F 96.2 °F 66.2 °F 41% 29.68 in 6.2 mi WSW 8.1 mph 19.6 mph N/A   Mostly Cloudy
5:00 PM 89.6 °F 93.4 °F 68.0 °F 49% 29.68 in 6.2 mi WSW 8.1 mph 19.6 mph N/A   Mostly Cloudy
5:30 PM 87.8 °F 91.4 °F 68.0 °F 52% 29.71 in 6.2 mi SW 8.1 mph 19.6 mph N/A   Scattered Clouds
6:00 PM 86.0 °F 89.4 °F 68.0 °F 55% 29.71 in 5.0 mi WSW 8.1 mph 19.6 mph N/A   Scattered Clouds
6:30 PM 84.2 °F 87.3 °F 68.0 °F 58% 29.74 in 6.2 mi WSW 5.8 mph 17.3 mph N/A   Scattered Clouds
7:00 PM 82 °F - 68 °F 55% 29.77 in 5 mi WSW 12.7 mph - -   Scattered Clouds
7:00 PM 82.4 °F 85.4 °F 68.0 °F 62% 29.74 in 5.0 mi WSW 12.7 mph - N/A   Scattered Clouds
7:30 PM 82.4 °F 86.3 °F 69.8 °F 66% 29.77 in 5.0 mi WSW 11.5 mph - N/A   Scattered Clouds
8:00 PM 82.4 °F 86.3 °F 69.8 °F 66% 29.77 in 5.0 mi SW 11.5 mph - N/A   Scattered Clouds
8:30 PM 80.6 °F 83.9 °F 69.8 °F 70% 29.80 in 5.0 mi WSW 9.2 mph - N/A   Partly Cloudy
9:00 PM 82.4 °F 86.3 °F 69.8 °F 66% 29.80 in 5.0 mi SW 8.1 mph - N/A   Partly Cloudy
9:30 PM 80.6 °F 83.9 °F 69.8 °F 70% 29.80 in 5.0 mi WSW 6.9 mph - N/A   Partly Cloudy
10:00 PM 80 °F - 70 °F 64% 29.81 in 5 mi SSW 8.1 mph - -   Scattered Clouds
10:00 PM 80.6 °F 83.9 °F 69.8 °F 70% 29.80 in 4.3 mi SSW 8.1 mph - N/A   Partly Cloudy
10:30 PM 78.8 °F - 69.8 °F 74% 29.80 in 4.3 mi SW 6.9 mph - N/A   Partly Cloudy
11:00 PM 78.8 °F - 69.8 °F 74% 29.80 in 4.3 mi WSW 5.8 mph - N/A   Partly Cloudy
11:30 PM 77.0 °F - 69.8 °F 78% 29.80 in 3.7 mi WSW 5.8 mph - N/A   Partly Cloudy